一网星座-0502星 (ONEWEB-0502 )

导读

ONEWEB-0502是英国一网(OneWeb)卫星星座的组网卫星,于2022年10月22日发射入轨。单星质量约147.5千克,运行在高度1200公里的近地轨道,配备Ku/Ka波段天线,依托离子电推进完成轨道提升。 作为OneWeb全球低轨卫星互联网星座的组成部分,它可为全球提供高速低延迟通信服务,支持政府、商业及应急场景的网络接入,是英国低轨通信布局的重要一环,也和星链形成差异化竞争。

Basic Information
目录编号:
54120
目录名称:
ONEWEB-0502
国际标识:
2022-138H
轨道中心:
EARTH
卫星名称:
一网星座-0502星
卫星全名:
一网星座-0502星 (ONEWEB-0502 )
卫星状态:
在轨 (已飞行1421 天)
发射日期:
2022-10-22 UTC
国别 :
英国 (GB)
星等 :
--
This satellite is enrolled in the Space Conjunction Data Service (SCDS) and the current flight risk assessment level is: No High Risk
Orbit Information
数据来源 国际轨道数据 AOE轨道数据
星历时间 2026-09-12T03:27:11+0800
10小时前
查看轨道信息
2026-09-10T23:00:00+0800
1天前
查看轨道信息
半长轴 7563.902km 7563.925km
偏心率 0.0002208 0.0002457
轨道倾角 87.912° 87.913°
近地点辐角 88.694° 46.175°
升交点赤经 287.705° 287.939°
平近点角 271.445° 84.614°
近地点 1184.094km 1183.929km
远地点 1187.436km 1187.647km
周期 109.114分钟 109.114分钟
每日圈数 13.197265 13.197205
Detailed Information
平衡模式:
三轴稳定
覆盖范围:
全球
运营商:
一网卫星公司
运营商所在国:
英国
制造商(研发单位):
一网卫星公司
制造商所在国:
英国
使用方式:
暂无
Satellite Introduction
OneWeb卫星网络由648颗重约125公斤的微型卫星组成,运行在1200公里的轨道上。 每颗卫星都能够提供至少每秒8千兆位的吞吐量,以使用其高吞吐量的Ku频段有效载荷为家庭和移动平台提供互联网接入。该卫星仍在工作。
2D Orbit Map
3D Orbit Map
Orbit Altitude Analysis Chart
Orbit Inclination Analysis Chart
Orbit Comprehensive Analysis Chart
View Comprehensive Chart
Miss Distance Evolution Trend with All Objects
Collision Probability Evolution Trend with All Objects